User: anonymous   Login
Location: Utrecht
(52.0830°N, 5.1330°E)
Time: 02:00:42
(UTC+02:00)
Language:

Cosmos 1092 Rocket - Orbit

View from above orbital plane
View from above orbital plane
View from above satellite
View from above satellite

Ground track
Ground track

The orbit data is extracted from the following two-line orbital elements,

1 11327U 79030B   17147.57866038 -.00000044 +00000-0 -59758-4 0  9994
2 11327 082.9475 311.1547 0026596 235.7278 168.0496 13.76966875916306
Epoch (UTC): 27 May 2017 13:53:16
Eccentricity: 0.0026596
inclination: 82.9475°
perigee height: 955 km
apogee height: 994 km
right ascension of ascending node: 311.1547°
argument of perigee: 235.7278°
revolutions per day: 13.76966875
mean anomaly at epoch: 168.0496°
orbit number at epoch: 91630

The dashed part of the orbit path shows where the satellite is in the earth's shadow,  

DLR